Location: Unspecified
(0.0000°N, 0.0000°E)
Time: 13:02:17
(UTC+00:00)

S-56A Canister/Altair - Pass Details

Date: 07 December 2023
Orbit: 640 x 2488 km, 38.9° (Epoch: 24 February)

Event Time Altitude Azimuth Distance (km) Brightness Sun altitude
Rises 20:45:00 0° 282° (WNW) 4,386 12.0 -39.3°
Reaches altitude 10° 20:48:02 10° 272° (W) 3,668 11.5 -40.0°
Maximum altitude 20:56:31 32° 213° (SSW) 2,921 10.7 -41.8°
Drops below altitude 10° 21:07:51 10° 156° (SSE) 4,910 11.6 -44.2°
Sets 21:12:48 0° 146° (SSE) 6,073 12.1 -45.3°
